Wind_Speed
10 3 4 5 5 7 9 11 12 12 11 7 7 8 12 9 6 9 9 10 12 5 2 4 5 6 5 5 4 4 3 3 1 0 3 5 17 23 24 26 27 24 24 26 23 23 24 26 25 24 24 24 24 24 25 25 23 23 21 21 22 21 22 23 23 25 25 22 19 18 17 14 11 9 10 11 11 11 13 13 14 14 15 15 14 14
10 4 5 8 9 11 11 12 13 12 12 11 7 4 10 9 7 10 12 13 8 3 4 6 6 6 5 4 4 5 4 1 4 3 4 3 10 16 20 27 29 22 24 28 24 23 25 28 27 26 26 25 25 25 25 25 23 24 22 20 20 20 22 21 21 23 23 20 18 18 17 15 14 12 11 11 11 11 12 13 13 14 15 15 14 13
6 5 7 10 10 12 12 11 12 11 11 10 6 1 6 7 8 8 11 15 8 3 5 6 6 5 4 5 4 5 5 3 1 2 1 2 7 14 13 22 31 24 24 29 26 24 26 29 28 28 27 25 26 26 26 25 23 24 22 19 19 20 21 20 21 22 21 19 16 15 15 14 16 14 11 11 11 12 13 13 13 13 14 14 14 14
4 5 10 12 10 11 11 12 12 10 8 6 5 2 6 10 10 6 8 12 7 3 7 8 6 3 2 4 4 5 5 6 3 7 8 5 3 9 6 10 24 27 26 29 28 25 27 30 29 28 28 26 28 27 25 25 24 24 23 20 20 20 20 21 21 21 20 19 16 13 11 11 14 14 12 12 12 12 12 13 13 13 14 14 14 14
5 8 13 13 11 10 11 12 11 8 5 5 7 4 7 13 12 9 11 10 5 4 9 9 6 3 2 4 2 3 3 7 5 6 12 12 7 8 5 5 17 25 28 29 28 27 28 31 30 27 28 28 28 27 26 26 26 25 23 21 21 20 21 22 21 21 20 20 18 15 13 12 14 15 15 15 15 14 13 13 13 12 13 13 13 13
7 11 15 12 11 11 9 10 10 7 4 5 7 5 4 13 15 14 16 12 5 2 7 8 5 2 4 5 4 1 1 4 6 6 10 13 9 10 11 12 15 20 28 29 27 28 29 31 31 27 28 29 28 26 26 26 26 26 24 22 21 20 21 22 22 22 22 22 20 18 17 17 16 16 16 16 16 16 15 14 13 12 12 13 13 13
5 10 11 11 11 11 9 7 9 9 5 3 5 3 2 12 18 16 16 11 5 4 10 9 4 3 4 4 6 5 1 2 4 7 9 12 11 13 17 18 14 16 28 31 27 28 29 30 32 29 27 28 27 25 26 25 26 26 24 22 22 21 22 22 23 22 23 23 21 19 18 17 15 15 16 14 13 14 15 15 14 13 13 12 13 13
6 10 10 10 10 9 8 6 7 8 4 2 5 8 6 14 17 16 16 9 4 6 8 7 6 5 2 2 6 8 6 5 4 5 7 10 14 16 20 21 14 13 25 32 28 28 30 31 32 31 28 27 25 24 25 26 25 25 23 23 22 21 21 22 23 23 22 23 22 21 19 16 14 14 14 13 11 12 14 15 15 15 13 13 13 12
8 10 9 8 9 7 5 4 5 4 5 6 6 6 9 14 14 13 12 6 4 8 5 6 7 5 2 1 3 6 8 8 7 7 8 13 19 19 20 21 14 11 17 27 30 28 30 32 31 31 28 26 25 24 25 25 25 24 22 23 23 21 21 22 23 22 21 22 21 21 21 19 16 14 13 12 11 11 12 14 15 15 14 13 13 12
8 12 12 7 6 6 4 4 7 4 4 7 9 7 6 12 13 10 6 3 5 7 7 11 9 4 3 2 2 3 5 7 7 6 7 14 20 18 19 20 15 12 13 19 26 29 30 31 30 30 27 25 25 24 24 25 25 24 22 23 24 22 21 22 23 22 21 21 21 21 20 19 17 16 15 13 12 13 13 14 14 15 15 14 14 13
7 14 14 8 6 7 7 7 8 9 7 6 8 9 5 6 7 6 2 1 2 2 6 16 13 5 4 3 3 3 4 5 6 5 5 11 16 15 16 18 17 14 11 13 20 25 30 31 28 28 27 26 26 24 25 26 26 24 22 23 24 22 21 22 23 22 22 22 22 20 19 19 17 17 18 16 14 15 16 15 14 13 14 14 13 13
7 8 7 7 9 5 6 7 9 10 10 7 6 3 0 1 2 4 2 1 1 4 2 13 12 7 4 3 4 5 5 7 6 6 7 8 10 12 16 20 18 14 12 14 15 19 28 30 28 29 27 27 28 26 27 28 27 24 22 23 24 24 22 22 23 23 23 23 23 21 20 19 18 18 19 18 16 17 16 14 13 12 13 14 13 13
5 4 3 7 7 3 1 4 5 5 6 4 4 2 3 1 2 3 3 2 3 4 1 12 12 7 3 4 8 8 7 7 6 6 9 11 11 11 17 20 17 15 16 17 15 16 26 29 28 28 26 26 29 28 27 28 28 25 23 23 24 24 23 23 23 23 23 24 23 22 20 20 20 18 18 18 17 18 16 14 14 13 13 15 14 14
1 5 3 4 1 4 4 2 2 1 3 1 2 3 4 3 2 2 3 2 3 4 5 13 12 5 2 3 5 8 9 10 10 11 14 17 17 16 19 20 16 16 18 20 17 16 25 28 27 28 25 25 30 29 27 28 28 27 24 24 24 25 24 24 24 23 23 24 23 23 21 21 21 19 18 18 18 17 16 15 15 13 13 14 13 13
4 3 3 2 2 6 6 2 0 3 3 3 1 0 1 2 4 3 4 4 4 3 5 7 7 4 4 3 4 8 13 15 14 13 14 16 14 15 18 17 15 17 18 20 19 17 22 24 25 28 26 25 29 30 28 27 28 27 24 24 25 26 25 24 25 24 23 24 23 23 22 22 22 20 18 17 17 17 16 16 15 14 13 12 12 12
6 3 6 6 2 6 8 4 1 4 1 4 2 1 3 3 4 3 3 6 5 5 4 3 4 4 5 7 6 10 14 16 16 14 13 14 12 11 11 10 9 13 16 19 19 18 19 20 22 26 25 24 29 30 28 28 29 27 25 23 24 25 26 25 25 24 24 23 22 22 23 22 21 21 19 17 16 16 16 16 14 14 13 12 11 11
3 3 6 9 5 5 6 2 1 0 1 1 2 2 5 4 4 2 3 4 2 5 3 2 6 6 5 6 6 7 9 10 13 13 11 13 15 15 11 8 7 6 8 11 15 17 18 18 19 23 23 21 25 29 29 29 29 28 26 23 22 24 26 25 24 24 24 23 23 22 22 21 21 21 20 18 17 16 16 15 14 14 14 12 12 13
3 3 5 11 9 3 2 1 3 6 3 1 1 3 6 4 1 0 1 2 1 5 3 3 7 7 4 2 3 5 6 5 8 11 12 15 18 19 17 11 8 5 5 7 9 12 14 14 14 18 23 22 21 26 30 30 30 29 28 24 21 22 25 26 24 23 24 24 23 23 22 22 20 20 19 18 17 16 16 16 15 14 14 12 12 13
3 4 3 5 7 3 2 2 3 9 7 1 2 4 3 2 3 0 2 2 2 5 3 2 3 2 1 2 4 6 7 9 10 12 12 13 17 19 19 16 13 9 8 7 6 6 6 7 10 15 22 24 20 21 26 29 30 30 29 26 22 20 21 24 24 23 23 24 24 24 23 22 21 20 19 19 18 17 17 17 16 16 15 14 13 13
2 2 2 1 3 3 1 2 1 5 5 3 5 5 2 3 2 1 2 3 4 5 4 3 1 2 1 1 3 5 8 11 12 10 10 13 16 18 20 18 17 16 14 13 11 7 5 6 11 15 19 21 18 16 19 23 27 30 30 28 25 21 20 21 23 23 24 24 24 24 24 23 22 21 20 19 19 18 17 16 16 17 16 16 15 14
3 3 3 2 3 3 2 2 3 3 1 0 1 4 4 2 2 2 4 3 6 6 5 6 3 1 1 2 3 6 8 10 12 11 11 15 17 18 20 19 17 17 16 16 17 13 8 7 10 11 12 14 16 18 19 19 22 28 29 28 27 26 24 23 23 24 24 25 25 25 24 24 23 22 21 20 19 19 18 17 17 16 16 17 16 15
3 3 2 3 2 3 3 4 7 6 4 3 2 4 5 4 3 2 4 2 3 5 6 7 5 2 1 1 1 3 8 11 14 16 15 17 20 18 18 18 17 18 17 17 19 17 13 10 8 7 7 10 14 20 23 20 17 22 26 27 26 25 24 23 24 24 25 26 26 26 25 23 23 23 22 21 20 20 18 18 18 17 16 17 17 17
4 2 1 1 3 5 7 9 8 4 3 2 1 3 4 2 1 2 1 1 4 7 7 6 6 4 0 2 3 4 8 17 17 18 19 18 20 19 17 18 18 18 19 18 19 17 14 14 12 10 10 12 15 17 20 18 14 16 21 22 21 22 22 23 23 23 24 25 26 26 25 22 21 21 22 21 21 21 20 19 18 18 17 18 17 17
6 2 2 3 2 3 5 5 4 0 4 2 2 4 0 2 4 4 3 3 3 7 8 4 4 4 2 2 1 7 8 22 18 18 21 18 20 21 19 19 19 20 20 20 22 19 15 17 18 16 13 12 14 12 11 12 13 15 16 17 19 21 21 23 24 24 25 26 26 25 24 22 19 18 20 21 22 23 22 20 19 18 18 18 18 17
5 2 2 3 2 3 4 4 4 4 4 2 4 4 3 6 5 4 1 3 4 3 5 4 4 3 2 3 3 7 5 20 18 18 22 19 20 21 19 20 20 20 20 21 22 21 19 20 20 18 16 14 13 11 8 7 10 13 14 15 19 19 17 19 21 22 24 24 24 25 24 22 20 18 17 18 21 22 23 22 21 20 19 20 20 19
2 2 2 3 4 3 3 0 2 3 2 2 5 4 6 10 8 4 3 5 4 1 3 5 5 5 2 4 3 5 3 14 16 20 22 20 21 22 19 20 20 19 20 20 21 22 23 23 22 19 17 14 14 15 13 10 7 9 12 12 13 13 14 16 16 17 19 19 21 24 25 24 23 22 19 18 18 20 22 22 22 21 20 20 21 21
1 2 3 6 4 0 2 1 3 2 1 2 6 3 7 12 8 4 4 3 5 4 3 5 11 12 7 6 5 6 7 11 13 19 21 20 22 22 21 20 20 20 19 19 21 24 25 25 25 23 20 15 12 12 13 13 10 9 9 8 8 10 13 16 16 16 18 19 20 21 24 26 25 24 23 22 21 22 22 23 22 22 22 21 20 21
1 3 4 4 1 2 3 6 7 5 6 7 8 4 6 9 6 5 5 6 7 7 4 4 13 15 11 10 10 9 9 11 13 19 21 20 22 24 24 22 19 19 19 19 22 24 25 25 24 24 22 20 17 14 12 12 11 11 9 7 7 9 9 10 12 14 15 17 19 19 21 26 27 26 25 23 22 23 24 24 23 23 22 22 22 21
2 3 5 3 2 2 2 6 7 8 8 8 5 6 7 8 5 5 6 8 6 7 8 8 12 14 12 12 10 9 10 12 15 20 22 23 24 25 26 23 20 18 18 19 20 22 23 24 23 23 22 20 20 18 15 11 9 9 8 8 8 8 7 4 6 10 11 12 15 18 20 22 24 26 27 25 22 22 24 24 23 23 22 20 23 25
2 3 6 7 4 2 3 5 6 7 7 7 7 9 10 9 7 5 8 12 11 11 13 13 13 11 9 9 10 13 18 21 21 19 18 20 22 24 25 23 21 19 18 18 19 19 21 21 22 23 23 22 22 21 20 17 13 11 8 6 7 7 7 5 4 5 5 6 10 13 16 18 20 22 26 27 25 22 24 24 23 23 20 15 17 25
4 3 5 6 6 6 5 3 3 4 4 6 7 6 5 7 7 6 9 13 14 13 13 14 14 8 5 10 16 19 23 23 21 20 21 21 22 24 24 22 22 20 18 18 17 17 18 20 20 21 22 22 20 20 20 20 20 19 17 13 7 3 4 5 5 6 8 9 10 10 10 13 15 18 22 26 26 24 24 24 23 23 24 19 15 20
3 2 4 4 4 4 6 2 3 3 3 5 6 4 3 4 5 5 8 11 13 15 14 13 11 5 4 12 16 18 21 21 19 20 21 22 23 24 22 22 21 19 17 17 16 16 16 17 19 19 20 19 18 17 17 18 20 21 21 19 14 5 2 2 3 5 6 7 9 11 11 11 12 13 16 19 23 24 24 24 23 24 28 28 22 21
3 2 3 3 3 3 6 5 3 2 4 3 4 7 3 3 2 4 9 13 14 15 12 9 7 7 9 12 12 12 15 16 18 19 19 20 23 23 21 20 19 17 16 15 15 15 16 16 17 18 17 16 16 16 15 16 19 21 20 19 17 12 5 1 2 4 5 4 4 6 9 10 9 9 9 11 15 20 22 22 24 27 29 31 29 26
3 3 3 1 1 3 7 4 2 5 3 0 3 8 5 3 3 4 9 12 12 10 8 8 9 9 10 10 10 11 13 14 16 16 16 18 22 23 20 18 16 14 12 12 13 15 16 16 18 17 15 15 15 15 15 15 16 17 18 17 17 15 13 10 5 1 4 6 6 6 6 7 8 8 9 10 11 15 18 20 21 25 29 31 31 28
1 2 2 1 1 3 5 2 6 3 1 1 4 8 9 7 9 12 13 12 12 14 14 14 12 11 11 13 15 19 18 16 16 15 14 14 16 19 21 20 17 13 11 10 10 13 15 16 17 17 14 14 15 15 14 14 15 15 15 16 14 13 15 16 13 10 6 3 5 7 7 8 8 9 10 12 13 14 16 17 18 21 26 29 30 28
2 1 1 1 1 2 3 3 4 2 0 6 6 6 7 9 10 12 12 11 12 13 13 13 12 13 15 18 21 23 21 18 15 15 14 11 11 15 20 21 19 15 12 10 10 11 13 16 17 16 13 12 14 16 13 13 13 14 14 15 13 12 15 17 17 16 14 11 9 7 7 8 10 11 12 14 15 15 16 17 18 19 22 24 27 28
4 2 2 1 1 0 1 2 3 2 1 3 3 3 4 7 6 6 7 8 9 12 13 11 10 12 16 20 24 25 23 18 12 10 12 10 12 17 19 19 18 16 14 13 11 10 12 14 14 12 10 10 13 15 12 11 13 14 15 17 16 15 16 17 18 18 18 15 14 12 9 7 7 9 13 15 15 16 16 16 17 19 20 21 23 24
3 2 1 2 0 1 1 1 2 2 1 2 1 3 8 13 11 8 7 5 5 12 18 12 10 14 18 20 24 25 21 13 6 7 12 9 10 16 17 16 16 14 12 10 8 9 11 12 12 9 7 7 11 12 9 9 12 12 15 18 17 16 16 17 17 18 18 17 15 13 12 11 10 7 6 9 12 13 14 16 16 16 17 19 21 23
1 1 1 2 1 2 1 1 1 1 2 1 3 5 11 17 13 9 7 1 4 11 22 17 12 17 20 21 24 22 15 6 3 10 16 13 13 16 15 13 13 11 9 7 7 9 10 8 8 7 6 5 7 8 7 8 10 11 14 16 14 14 16 17 16 17 17 16 15 14 12 11 12 12 8 4 6 8 10 13 15 16 17 18 20 22
1 1 1 0 3 3 1 1 1 1 1 2 5 9 13 14 10 8 5 4 4 11 21 19 14 15 17 19 19 12 6 5 8 14 18 16 15 14 10 8 9 7 5 5 5 6 6 4 4 5 5 5 4 3 6 8 10 12 13 13 11 12 15 16 16 17 16 16 14 13 13 12 11 12 10 7 6 7 8 9 12 16 18 18 19 19
1 1 0 1 3 3 1 0 1 1 1 2 7 10 11 8 6 5 4 4 5 13 15 19 21 19 19 21 20 13 11 15 18 18 18 16 14 12 9 9 8 5 4 4 4 2 1 2 3 2 3 4 4 5 7 9 10 11 13 12 10 10 11 12 14 16 17 17 15 13 12 12 11 11 11 10 9 8 9 10 10 12 13 14 16 17
1 1 1 2 3 2 1 0 2 1 1 4 10 11 9 5 1 3 3 5 17 23 21 24 26 24 24 26 24 21 19 19 19 19 18 17 16 14 13 11 8 5 4 3 2 3 3 6 7 6 5 6 7 8 9 9 9 9 10 10 10 9 8 7 9 12 15 16 17 16 12 10 10 11 11 11 11 11 11 11 11 11 11 11 11 12
1 1 1 1 1 2 1 1 3 1 1 7 9 6 5 2 4 5 8 15 21 22 22 22 22 25 28 27 23 22 20 18 18 18 16 15 14 13 12 11 8 6 5 3 1 3 3 6 7 8 8 7 7 7 8 9 8 8 8 8 9 10 8 6 7 9 10 12 16 19 16 12 12 13 12 11 12 14 14 13 11 10 10 11 11 11
1 1 0 1 1 0 1 0 2 2 5 11 9 4 4 8 10 11 15 17 17 18 19 18 17 20 23 22 20 19 17 16 16 15 14 13 13 12 11 9 7 7 6 3 2 4 5 6 7 7 7 6 6 6 8 8 9 8 8 8 10 11 10 9 8 7 6 7 12 17 19 18 16 15 13 12 13 14 14 14 13 11 9 10 12 12
1 3 4 1 1 1 3 2 3 3 12 17 16 14 14 13 12 13 15 15 14 14 16 16 15 15 17 20 20 17 14 15 15 14 13 12 12 12 10 8 7 7 5 3 3 4 5 5 5 5 5 6 6 7 7 8 9 10 9 10 11 10 9 9 9 8 6 5 8 13 17 20 18 15 13 13 14 14 14 13 13 11 10 11 14 14
3 6 6 2 1 1 5 7 6 9 17 22 20 17 15 13 12 12 13 12 12 12 11 12 13 13 15 16 15 13 13 15 14 13 13 13 11 10 10 9 7 6 3 2 2 3 4 4 4 5 6 7 8 8 9 9 10 11 11 11 11 11 10 10 11 11 9 8 9 10 13 17 18 16 13 11 11 12 13 13 13 13 12 14 16 17
5 6 2 2 2 2 2 4 5 9 16 22 21 18 16 13 11 10 9 7 9 13 11 10 14 16 15 14 13 11 12 12 12 12 14 13 10 9 9 7 5 4 3 1 1 2 3 4 5 6 7 9 9 9 10 10 9 10 10 10 10 10 11 12 12 13 13 11 9 8 9 13 16 16 12 8 6 9 12 13 14 15 15 15 16 18
4 6 2 1 2 2 2 1 4 7 11 14 17 18 20 18 13 10 7 5 7 12 13 11 14 17 16 14 13 12 11 10 11 12 12 11 9 8 7 4 4 4 3 1 1 2 4 6 6 7 8 8 9 9 9 9 10 10 10 9 9 9 9 10 11 13 14 13 11 8 7 10 14 13 10 8 9 10 12 13 14 17 18 17 17 17
4 2 1 1 1 0 1 5 7 6 6 5 6 10 16 19 17 13 10 7 8 11 13 13 13 13 12 11 12 12 11 10 10 10 9 9 10 9 6 5 5 4 2 2 3 4 5 5 6 7 7 7 10 12 12 13 13 13 13 12 11 11 11 11 11 12 13 14 12 7 5 9 13 12 11 12 14 15 16 16 16 18 19 17 16 16
2 0 0 1 0 1 1 5 6 3 3 1 1 2 6 12 17 19 17 14 13 12 14 15 13 10 9 9 11 13 13 11 11 11 10 8 9 9 8 6 5 4 4 5 4 5 5 5 5 7 8 10 13 14 15 15 15 14 13 11 11 11 12 13 14 14 13 13 12 8 6 9 13 14 15 17 18 19 19 17 15 15 16 16 16 16
2 2 3 2 1 2 2 3 5 3 1 4 5 2 2 5 12 18 18 18 18 17 16 17 16 15 13 10 9 13 15 12 11 12 11 9 8 7 6 6 6 6 6 5 6 5 4 4 6 9 10 12 14 15 16 16 15 14 11 9 8 9 9 11 14 16 15 14 13 11 10 11 13 15 19 20 19 18 18 18 17 16 14 15 16 17
Wind_Direction
201 190 189 211 228 227 225 232 242 254 266 258 225 175 146 153 178 183 168 159 169 148 170 193 128 149 169 154 135 112 164 175 202 187 72 140 152 165 176 160 167 182 167 161 165 171 172 164 162 161 159 163 164 165 167 169 167 170 175 173 174 173 166 165 162 159 158 160 164 163 164 165 161 157 154 146 141 146 154 156 158 156 154 160 167 166
199 208 215 210 217 231 235 234 240 253 268 272 265 161 142 146 158 173 159 153 157 96 175 186 131 162 182 145 100 94 145 58 23 55 48 75 146 177 184 160 167 179 165 163 168 174 169 162 164 162 161 164 165 167 169 170 170 173 180 182 181 174 168 167 164 161 159 161 164 161 162 161 160 164 162 154 150 153 159 159 158 158 155 156 162 167
193 223 230 219 212 222 240 247 245 247 254 267 277 136 134 135 129 149 152 143 135 93 151 140 119 166 176 125 87 76 107 76 331 204 310 348 158 192 196 161 168 178 166 165 169 174 166 161 164 163 164 168 170 171 172 173 174 176 183 189 186 176 169 169 167 164 160 161 163 159 158 158 159 160 157 154 155 158 160 160 161 161 157 157 161 165
181 219 228 233 225 211 227 247 251 249 243 249 252 210 132 140 134 145 156 138 131 125 122 119 119 132 131 118 72 39 83 105 208 223 217 261 232 203 218 166 173 177 170 167 170 172 164 162 165 164 169 172 174 176 176 177 178 180 186 190 187 177 172 172 168 166 162 156 161 166 162 162 161 155 152 154 157 160 160 160 163 162 160 159 160 163
206 207 213 229 243 222 216 230 241 245 238 240 241 221 145 152 151 151 150 130 96 96 124 130 113 87 164 160 93 21 81 128 154 202 213 241 249 199 207 192 183 180 173 169 171 171 166 165 164 165 172 175 177 179 180 181 181 185 188 188 185 177 175 174 167 167 162 156 163 171 170 171 167 157 158 163 162 163 162 163 163 161 163 160 158 162
228 215 204 210 237 238 226 224 230 230 221 240 246 247 166 150 141 139 144 134 96 111 167 157 103 95 184 168 139 74 9 153 150 164 211 241 238 210 212 200 193 188 176 171 173 170 168 168 165 168 174 176 180 182 184 185 183 189 191 188 185 179 179 176 170 170 165 163 168 170 171 171 170 168 167 166 163 163 163 164 164 163 165 162 160 163
237 230 214 201 215 232 236 231 228 221 208 217 215 243 66 118 128 143 154 153 133 161 200 190 122 116 166 149 150 152 168 205 166 156 197 229 228 226 226 210 206 195 175 170 174 173 171 170 168 171 177 178 181 183 186 186 186 191 192 189 186 181 182 177 173 175 172 172 172 169 175 174 171 174 169 165 161 159 161 164 164 165 167 163 162 164
219 232 234 208 204 222 227 232 233 205 184 264 198 174 149 126 139 164 168 174 158 143 191 190 119 109 152 149 145 150 158 176 193 175 182 215 227 231 225 214 212 199 177 171 175 177 175 173 172 173 178 181 181 183 186 186 188 193 193 190 188 184 183 179 179 182 178 179 175 170 175 177 175 175 168 165 165 160 162 166 165 164 167 166 163 163
197 226 246 212 203 226 206 212 250 184 154 263 252 176 167 150 155 179 176 178 155 140 168 172 131 109 124 136 126 152 159 161 189 195 177 199 215 220 215 212 210 195 183 174 177 182 177 175 175 174 178 183 183 185 187 188 190 196 196 189 188 188 185 182 184 187 182 180 179 174 176 178 177 174 171 174 174 172 172 170 167 165 167 168 166 166
185 214 241 223 197 221 187 187 245 239 182 235 261 274 224 162 162 189 186 158 158 158 172 174 164 115 111 160 155 180 182 170 186 194 188 199 205 205 203 210 208 190 186 176 177 183 179 177 177 175 180 184 186 187 188 190 193 198 200 191 189 191 187 184 188 188 183 179 180 179 177 177 175 172 177 178 176 181 182 176 170 166 167 167 167 171
207 202 228 250 220 196 172 177 216 240 242 217 230 262 252 158 158 178 159 53 161 201 188 176 170 129 113 159 171 205 205 169 164 172 193 204 202 202 201 208 209 195 188 177 177 182 179 177 177 176 180 185 187 187 187 193 198 200 202 195 190 191 189 188 189 188 183 178 180 182 179 174 171 172 176 175 173 180 181 177 172 168 170 170 169 172
247 207 212 234 238 206 165 186 205 233 249 231 218 242 57 65 58 105 119 339 234 283 218 153 137 98 95 155 171 199 195 160 162 175 180 189 191 195 202 207 206 201 196 185 178 176 173 174 175 174 180 187 187 187 188 194 200 202 204 199 192 192 193 190 190 189 186 182 182 184 182 175 174 179 181 178 175 179 180 180 180 178 179 177 173 175
252 273 185 184 233 262 231 217 202 244 268 239 213 187 120 129 41 105 170 181 205 261 98 113 103 75 71 117 137 150 157 155 154 144 147 165 175 182 200 208 208 208 206 195 183 170 168 171 173 175 181 188 188 186 188 195 200 202 205 203 196 193 194 193 193 191 189 189 187 187 187 180 179 187 188 185 181 181 183 183 187 190 188 183 180 179
153 304 239 139 161 220 244 264 131 342 310 265 184 164 146 149 141 174 181 169 226 230 114 100 91 87 109 94 123 135 128 126 120 108 125 157 176 181 193 204 207 209 207 202 195 174 167 171 174 176 182 189 189 186 186 195 202 203 206 206 200 197 196 195 196 194 193 195 192 190 192 185 183 190 193 190 187 186 187 185 188 195 193 187 185 184
152 278 219 144 88 182 208 240 87 319 263 217 278 346 201 153 157 189 174 181 216 160 108 83 83 130 158 116 112 111 104 108 109 103 113 134 154 169 183 193 199 204 204 204 202 182 170 172 175 178 183 189 190 187 187 196 203 206 208 208 202 199 199 196 197 197 195 197 195 194 197 192 188 192 195 194 189 188 191 190 187 191 196 195 191 191
176 187 163 165 176 196 199 191 276 325 267 206 217 252 266 216 173 209 209 200 187 114 78 29 76 121 106 77 78 94 100 106 108 106 105 102 103 121 149 161 170 189 196 199 200 192 180 176 178 182 186 192 193 190 190 195 204 210 211 212 207 202 201 199 198 197 197 199 198 197 200 199 194 193 195 196 192 189 192 196 191 189 195 200 199 196
153 214 177 160 164 224 217 150 153 197 62 221 207 233 269 240 192 234 278 246 178 100 85 96 114 118 87 54 45 65 86 104 106 100 87 77 74 71 77 104 130 156 177 186 192 193 188 181 180 183 188 195 197 195 194 197 205 212 214 213 211 206 204 203 200 199 199 201 201 199 202 203 201 198 198 198 196 192 191 198 200 194 193 198 202 198
70 290 219 164 151 198 229 8 274 237 215 160 167 303 314 318 309 121 271 285 73 97 105 124 122 126 122 86 80 84 96 118 112 97 78 65 62 55 55 81 114 126 136 149 169 183 189 187 181 183 191 196 195 194 196 199 205 212 217 219 216 210 207 207 206 204 203 204 205 203 203 205 205 205 203 202 201 198 194 199 203 202 197 195 202 204
13 315 268 165 137 131 148 78 294 262 250 217 26 327 323 330 310 104 167 253 103 108 103 54 62 74 70 123 144 144 142 131 110 98 84 65 59 53 53 72 90 91 94 98 111 141 162 185 194 195 195 195 198 197 194 197 203 205 210 215 218 218 214 211 211 211 209 209 209 207 205 206 207 207 207 206 206 204 203 204 204 205 204 200 205 212
325 268 285 292 130 144 159 90 57 280 285 354 357 313 235 195 235 204 205 213 124 123 135 108 37 316 327 133 143 145 135 120 108 99 90 78 67 58 56 66 75 70 66 63 63 76 106 170 201 206 199 196 205 208 193 190 195 196 200 204 208 215 216 215 215 216 217 215 213 212 210 208 208 207 208 209 209 209 209 211 209 207 207 207 210 212
296 229 185 202 191 182 153 121 193 232 264 166 273 266 255 264 242 227 252 217 135 136 149 133 127 264 207 197 170 143 125 111 109 105 95 87 77 64 61 64 67 67 65 62 59 62 89 154 191 201 205 204 207 208 202 193 188 191 196 197 198 202 204 208 212 214 217 219 219 219 215 213 212 209 209 211 213 214 212 214 216 214 210 211 214 211
312 286 144 157 185 195 169 179 208 226 236 212 200 228 239 257 246 249 288 287 110 122 143 140 133 131 167 185 231 169 126 109 105 102 97 90 83 73 66 63 63 65 64 62 61 64 83 114 148 161 186 210 208 208 213 212 198 193 196 197 200 203 202 205 211 212 213 215 218 222 221 218 216 214 213 211 211 214 215 215 218 219 215 214 217 214
318 317 17 201 199 186 183 185 192 221 289 299 253 245 246 266 105 104 287 309 54 84 105 110 112 124 242 44 342 301 110 106 102 100 98 90 85 81 72 64 60 61 62 61 60 63 81 99 105 114 142 184 198 203 209 211 206 199 197 200 210 214 208 208 214 217 218 215 211 216 222 223 221 218 217 213 210 212 216 219 220 219 217 217 222 220
323 343 1 305 254 163 165 173 162 123 341 346 246 246 271 62 87 110 168 174 92 98 109 92 95 119 286 58 1 281 122 111 110 107 104 97 89 84 75 67 61 58 59 61 62 63 79 99 101 100 113 152 178 187 192 194 199 203 202 204 212 217 212 209 213 218 221 220 214 211 215 222 225 223 220 217 213 211 214 219 222 222 219 219 226 229
318 6 6 337 11 57 46 17 11 348 339 330 259 262 67 60 51 47 61 96 67 61 101 106 108 116 242 146 149 263 148 117 116 111 107 104 98 90 80 73 67 63 62 65 67 65 72 86 94 98 102 112 125 126 124 150 185 200 204 202 205 214 215 212 218 221 219 223 224 214 208 215 221 223 224 222 218 215 215 216 219 224 225 222 224 231
320 34 33 69 67 56 80 145 269 277 284 266 269 283 56 53 48 65 63 73 82 35 73 108 125 122 140 119 114 267 155 111 107 101 98 99 98 95 90 81 72 68 67 68 69 67 70 72 73 81 93 104 110 106 101 104 136 177 189 189 192 201 203 201 212 218 215 225 231 218 207 209 213 214 217 221 220 219 218 218 219 223 228 228 225 226
2 52 66 96 93 152 152 221 271 268 349 306 278 280 68 54 41 75 85 85 117 103 63 121 135 135 143 138 166 208 152 113 106 102 100 102 102 99 96 89 79 73 69 67 67 66 70 70 66 65 70 77 91 99 103 105 114 144 169 180 181 190 201 207 212 212 211 225 237 225 210 209 213 212 212 215 215 213 214 218 219 223 231 235 232 226
44 36 47 109 179 288 13 355 342 7 9 331 301 304 80 79 42 21 70 120 127 96 66 130 135 137 154 162 166 164 133 117 118 115 111 111 112 108 101 93 84 77 70 64 62 62 64 67 66 63 62 65 71 75 87 103 109 118 130 143 160 178 199 219 227 223 220 230 240 239 222 212 213 215 214 214 214 212 212 214 215 218 229 239 241 237
98 33 1 331 264 242 6 359 357 14 7 348 354 13 37 72 67 21 80 120 123 111 131 153 139 133 144 149 141 125 113 108 113 122 127 125 118 109 101 93 86 81 72 64 60 60 61 62 63 61 59 63 68 67 71 83 94 101 106 106 112 136 159 184 229 232 233 235 236 242 238 225 220 221 219 217 217 215 215 217 216 214 220 236 246 248
49 25 360 352 351 350 12 19 13 13 8 5 39 46 21 20 34 42 91 106 102 115 137 139 124 116 121 121 107 98 97 91 87 95 111 118 114 104 97 93 88 83 76 68 64 62 61 59 59 58 57 59 63 64 63 62 63 61 58 72 94 113 137 147 170 187 190 199 209 226 239 236 233 233 227 222 222 221 219 220 221 220 221 231 242 245
34 9 351 11 17 349 348 19 352 339 6 7 18 50 33 1 6 42 89 106 108 114 123 120 111 99 85 93 92 93 95 91 84 77 74 81 91 92 89 87 85 81 78 74 68 65 64 61 58 55 54 54 57 61 61 57 55 52 43 44 67 118 159 156 154 156 157 171 189 204 220 227 231 233 230 227 228 229 225 223 224 226 228 230 232 232
42 344 328 31 49 324 312 308 276 295 19 19 350 351 47 31 360 33 94 114 121 123 121 116 115 124 117 102 96 94 92 87 82 79 77 80 87 90 86 82 80 77 76 75 69 65 66 66 62 58 54 51 50 53 59 60 60 57 48 45 51 63 201 205 183 178 174 175 190 203 209 213 220 226 230 231 231 231 231 231 229 226 226 226 227 228
14 7 347 44 69 300 292 279 259 342 30 29 332 326 359 108 23 28 95 117 129 133 133 133 139 145 136 121 109 102 94 87 86 87 88 91 95 97 94 87 82 78 75 75 71 66 67 69 67 61 56 55 52 45 50 64 67 64 58 47 39 41 53 54 234 217 215 212 204 210 214 217 222 229 238 238 232 229 229 232 234 229 226 224 223 227
5 9 356 22 72 285 276 269 57 51 36 55 342 341 345 151 143 66 86 114 130 127 116 122 130 131 131 130 123 115 106 102 103 103 100 100 101 103 102 96 92 87 80 76 69 64 67 72 70 63 54 53 55 47 44 59 72 73 71 61 43 38 50 58 65 162 240 253 260 259 245 236 236 247 258 255 244 234 228 231 234 232 230 229 226 229
26 348 333 331 26 298 288 45 73 54 288 79 26 8 21 65 94 86 78 93 115 117 116 123 130 135 141 137 126 120 118 115 115 119 118 108 102 106 109 106 100 96 92 84 67 58 63 67 64 58 47 39 48 50 39 40 58 70 75 74 59 42 45 53 62 68 59 5 300 288 279 266 255 256 264 264 257 248 238 234 234 234 234 234 232 235
18 330 295 271 119 313 329 76 108 197 98 55 31 9 29 52 75 86 83 89 107 116 122 129 136 145 147 138 127 124 128 129 127 130 130 111 92 106 113 108 101 98 97 88 68 53 60 65 60 52 41 30 40 48 35 15 23 42 55 60 54 39 36 43 50 52 53 49 31 0 324 295 277 266 269 273 267 260 251 242 235 234 235 234 233 235
21 21 351 18 119 160 6 95 126 132 70 33 12 3 39 56 75 91 96 106 117 127 133 135 145 151 142 134 134 138 140 136 129 137 142 119 96 104 108 103 99 97 95 90 75 57 61 69 65 50 33 28 38 42 32 2 360 19 35 38 35 27 25 32 37 37 38 40 37 31 20 355 319 283 273 276 275 268 261 252 243 239 240 238 234 235
37 70 53 53 163 211 100 56 77 100 217 252 167 98 68 72 79 84 97 121 152 144 140 138 139 141 139 141 146 148 145 137 127 155 163 153 122 114 106 98 98 95 91 91 78 61 64 74 76 56 23 28 40 33 15 350 349 2 16 23 26 18 12 18 23 25 27 29 29 30 32 31 22 353 297 277 277 271 263 259 255 252 251 246 243 244
77 87 72 65 293 268 140 140 120 127 246 254 102 87 79 83 82 72 85 152 245 146 139 140 141 146 155 159 154 148 148 148 142 157 163 158 134 123 114 102 99 92 82 77 69 71 76 84 89 70 33 36 46 23 347 328 331 341 355 10 19 12 5 8 9 10 16 19 19 20 20 24 25 17 4 325 294 283 266 258 256 256 256 252 250 252
349 354 24 88 274 289 339 115 87 75 237 152 95 84 88 96 90 75 91 242 249 141 146 151 137 131 141 143 136 133 144 148 144 154 158 149 127 122 126 122 110 100 79 51 49 78 90 87 92 78 46 49 52 350 316 315 322 328 342 1 13 8 6 7 360 358 2 4 6 10 7 6 12 12 10 6 345 318 294 275 258 253 256 258 260 262
284 304 220 249 278 302 355 36 70 62 215 121 92 89 96 101 90 96 174 241 51 81 115 128 115 102 103 108 107 102 102 108 119 131 138 135 128 123 128 132 125 110 76 26 360 7 10 332 340 359 5 17 8 332 322 329 335 335 340 352 1 3 9 9 355 351 355 354 353 0 3 1 2 2 1 359 349 333 321 309 288 271 267 268 270 273
198 235 197 246 282 284 248 176 81 55 344 88 86 80 78 81 130 172 176 82 72 74 88 107 110 105 102 103 106 111 111 109 113 118 117 121 127 127 126 132 135 124 93 59 319 293 293 293 295 300 311 330 344 344 343 348 353 351 346 347 349 348 358 8 352 346 353 352 345 345 352 359 357 353 348 344 343 341 336 325 307 292 291 292 290 287
178 192 176 202 260 254 237 90 96 115 68 96 97 68 34 75 173 153 95 83 85 88 93 100 103 106 109 110 110 116 118 115 117 119 115 119 129 134 137 137 138 136 121 108 248 262 279 290 296 306 314 323 335 339 342 347 351 357 355 342 328 322 326 334 329 331 348 353 337 330 333 341 347 347 339 331 335 338 336 333 324 309 304 308 310 304
348 350 104 36 351 330 42 352 226 222 68 80 95 100 96 119 132 120 99 92 93 98 102 103 102 107 115 119 118 120 121 118 122 127 124 125 130 135 140 141 139 145 146 151 239 266 289 304 315 325 326 328 328 322 326 333 337 343 346 332 321 320 325 330 324 318 339 350 329 319 320 325 334 342 338 328 329 330 329 330 331 330 330 323 313 305
33 141 149 123 301 205 120 138 215 126 90 93 104 112 113 116 120 118 113 108 107 112 116 117 113 112 121 128 126 125 128 129 133 138 138 140 141 134 132 140 146 147 159 202 259 301 324 334 348 355 346 337 331 324 327 331 331 333 335 329 327 330 331 330 321 308 300 304 307 311 317 320 327 337 337 330 328 327 326 327 327 327 327 315 303 301
117 125 144 152 331 42 108 130 150 127 113 116 121 123 123 120 119 126 130 128 132 137 136 137 141 136 132 134 132 130 136 138 136 139 146 149 147 138 135 142 148 150 164 216 291 332 355 11 13 5 354 348 346 344 341 339 336 336 335 332 333 336 334 329 323 316 307 290 283 296 313 318 321 330 336 337 334 327 324 327 326 318 313 308 304 305
49 52 95 156 90 63 125 171 170 145 132 131 134 140 143 137 129 133 135 132 149 160 158 156 165 166 157 148 144 141 147 149 149 156 160 153 145 149 154 151 145 150 163 174 331 335 337 341 345 352 358 358 354 348 341 338 336 334 331 333 338 340 336 332 329 326 322 308 288 287 307 313 315 325 334 330 314 307 310 317 319 312 310 309 307 306
41 27 12 166 113 144 194 153 101 122 136 139 142 149 154 155 154 150 142 119 133 155 160 152 153 161 163 161 160 156 156 159 159 162 165 165 169 176 175 170 165 163 166 184 248 286 311 326 341 355 2 353 336 324 319 314 311 310 311 315 320 321 320 322 324 322 321 317 306 295 301 305 308 319 323 298 277 284 294 302 305 305 308 311 311 310
81 65 79 74 25 264 309 24 51 101 138 147 155 160 161 165 171 171 169 164 142 144 156 155 146 148 158 174 182 177 172 177 176 165 158 167 179 179 167 165 178 187 209 240 255 293 322 339 348 346 338 323 312 309 306 304 303 306 311 312 312 310 306 305 309 311 316 321 317 304 302 307 305 300 289 277 277 285 292 295 296 298 301 305 310 313
82 8 16 90 65 207 52 18 23 79 138 90 19 160 160 168 175 173 168 167 164 162 167 167 162 159 163 179 191 185 179 182 180 170 165 167 170 170 171 183 204 228 241 247 274 318 344 353 336 316 306 306 307 306 308 312 313 314 314 314 315 317 315 313 314 310 310 315 316 302 289 298 296 285 279 284 291 294 296 297 294 293 297 302 305 310
88 64 54 75 142 167 127 52 42 76 95 12 21 61 106 134 161 169 173 177 181 186 187 184 186 188 182 176 183 184 184 186 187 186 187 185 180 182 193 208 221 226 238 269 306 328 330 311 302 304 305 306 307 309 314 320 319 316 314 311 310 313 315 321 323 318 312 313 315 305 288 280 284 289 293 297 298 296 299 303 299 294 295 300 302 305
Height
1484 1491 1494 1495 1494 1490 1486 1483 1482 1479 1478 1483 1484 1488 1498 1503 1506 1504 1502 1503 1504 1515 1522 1517 1519 1523 1520 1520 1519 1521 1522 1524 1527 1527 1529 1530 1530 1533 1535 1537 1541 1543 1545 1547 1550 1552 1554 1555 1557 1559 1561 1562 1565 1567 1569 1570 1572 1574 1575 1577 1578 1579 1581 1582 1583 1585 1586 1587 1588 1589 1589 1588 1588 1588 1588 1589 1589 1590 1591 1592 1593 1594 1594 1595 1596 1597
1485 1493 1493 1488 1487 1484 1481 1478 1476 1478 1478 1478 1479 1485 1494 1498 1501 1499 1499 1503 1505 1516 1524 1518 1521 1523 1520 1521 1521 1521 1523 1525 1528 1528 1529 1530 1530 1533 1534 1536 1539 1542 1544 1546 1550 1552 1553 1555 1556 1559 1560 1562 1564 1566 1568 1570 1571 1573 1574 1576 1578 1579 1581 1582 1583 1584 1585 1586 1587 1589 1589 1590 1589 1589 1589 1589 1590 1591 1592 1593 1594 1594 1595 1596 1596 1597
1489 1492 1487 1481 1479 1478 1478 1475 1474 1477 1477 1479 1478 1481 1493 1496 1497 1500 1498 1502 1507 1514 1521 1523 1526 1525 1521 1522 1523 1523 1524 1528 1530 1528 1529 1531 1532 1534 1534 1536 1538 1540 1543 1545 1548 1550 1551 1554 1555 1558 1560 1561 1564 1566 1568 1569 1570 1572 1573 1575 1577 1578 1580 1582 1583 1584 1585 1587 1588 1589 1590 1590 1591 1591 1591 1591 1591 1592 1593 1593 1594 1595 1596 1596 1597 1598
1492 1488 1480 1475 1474 1476 1479 1476 1475 1477 1476 1479 1478 1481 1493 1492 1496 1506 1504 1505 1508 1509 1518 1526 1529 1528 1524 1524 1525 1525 1526 1528 1530 1528 1528 1531 1533 1534 1535 1536 1537 1539 1541 1543 1546 1549 1550 1553 1554 1557 1559 1561 1563 1565 1567 1569 1570 1571 1572 1574 1575 1578 1580 1581 1583 1584 1585 1587 1589 1590 1591 1592 1592 1592 1592 1593 1593 1593 1594 1594 1595 1596 1596 1597 1597 1598
1485 1478 1472 1472 1473 1474 1478 1477 1475 1479 1479 1477 1475 1478 1487 1487 1490 1498 1501 1506 1509 1510 1517 1521 1531 1536 1530 1528 1529 1526 1527 1530 1531 1529 1529 1531 1532 1533 1534 1535 1537 1538 1540 1543 1545 1548 1549 1551 1554 1556 1558 1560 1562 1564 1566 1568 1569 1570 1571 1573 1575 1577 1579 1581 1582 1584 1585 1587 1588 1590 1591 1592 1592 1593 1593 1593 1593 1593 1594 1595 1595 1596 1597 1597 1598 1598
1478 1470 1467 1472 1473 1472 1476 1477 1473 1476 1480 1478 1473 1469 1473 1479 1485 1491 1496 1505 1518 1527 1519 1513 1535 1548 1532 1530 1534 1529 1529 1531 1531 1531 1532 1534 1532 1531 1534 1535 1536 1538 1540 1542 1544 1547 1549 1550 1553 1555 1557 1559 1561 1564 1566 1567 1569 1570 1571 1573 1574 1576 1578 1580 1582 1583 1585 1586 1587 1589 1590 1591 1592 1592 1593 1593 1593 1594 1594 1595 1596 1596 1597 1598 1598 1599
1472 1465 1464 1469 1472 1472 1474 1475 1470 1469 1478 1482 1472 1463 1467 1475 1483 1491 1494 1503 1519 1527 1513 1503 1529 1549 1537 1532 1534 1531 1531 1531 1530 1531 1532 1533 1532 1531 1534 1535 1536 1537 1539 1541 1544 1546 1548 1550 1552 1555 1556 1558 1560 1563 1565 1567 1568 1569 1571 1572 1574 1576 1578 1580 1581 1583 1584 1585 1587 1588 1589 1590 1591 1592 1593 1594 1594 1594 1595 1596 1597 1597 1598 1598 1599 1599
1467 1466 1465 1466 1469 1472 1474 1474 1466 1463 1476 1480 1465 1460 1470 1476 1483 1489 1490 1499 1505 1507 1509 1505 1514 1537 1544 1537 1531 1530 1533 1533 1530 1530 1530 1531 1531 1532 1533 1534 1535 1537 1538 1540 1543 1546 1547 1548 1551 1554 1556 1558 1560 1563 1565 1567 1568 1569 1571 1572 1574 1576 1577 1579 1581 1582 1584 1585 1586 1588 1589 1590 1591 1593 1593 1594 1595 1596 1596 1596 1597 1597 1598 1599 1599 1600
1462 1466 1466 1464 1469 1472 1470 1468 1460 1459 1472 1472 1459 1459 1467 1471 1480 1484 1487 1496 1498 1503 1520 1514 1507 1533 1550 1538 1531 1532 1534 1536 1533 1530 1530 1530 1531 1531 1532 1533 1534 1536 1538 1539 1542 1545 1546 1547 1550 1553 1556 1558 1559 1562 1564 1566 1567 1568 1570 1572 1573 1575 1577 1578 1580 1581 1583 1585 1586 1587 1588 1590 1591 1592 1594 1594 1595 1596 1596 1597 1597 1598 1598 1599 1600 1600
1459 1460 1459 1459 1467 1468 1463 1460 1456 1460 1468 1463 1457 1461 1463 1467 1475 1481 1488 1495 1498 1508 1521 1514 1506 1530 1551 1542 1536 1537 1536 1535 1531 1528 1528 1529 1530 1531 1531 1532 1533 1535 1537 1538 1541 1543 1545 1546 1549 1553 1555 1557 1559 1561 1563 1565 1566 1568 1569 1571 1572 1574 1575 1577 1579 1581 1582 1584 1586 1587 1588 1589 1591 1592 1593 1594 1595 1596 1597 1597 1597 1598 1599 1599 1600 1601
1453 1453 1454 1455 1459 1458 1456 1457 1456 1458 1460 1457 1461 1465 1466 1469 1471 1478 1484 1487 1501 1511 1507 1503 1502 1517 1543 1547 1538 1534 1529 1526 1526 1525 1525 1526 1529 1531 1531 1531 1533 1535 1537 1537 1540 1542 1544 1545 1548 1551 1555 1556 1558 1560 1562 1564 1565 1567 1568 1569 1571 1572 1574 1576 1578 1580 1581 1583 1585 1586 1588 1589 1590 1592 1593 1594 1595 1596 1596 1597 1597 1598 1599 1599 1600 1601
1454 1456 1456 1451 1450 1450 1453 1458 1456 1454 1455 1457 1464 1469 1475 1479 1478 1485 1489 1491 1512 1515 1495 1494 1498 1509 1537 1544 1532 1528 1521 1518 1522 1523 1522 1525 1529 1531 1531 1531 1532 1534 1536 1536 1539 1541 1543 1545 1547 1550 1553 1555 1557 1559 1561 1562 1563 1565 1567 1568 1570 1571 1573 1575 1577 1579 1580 1582 1584 1585 1587 1588 1590 1591 1592 1593 1594 1595 1596 1597 1598 1599 1599 1600 1600 1601
1460 1460 1454 1450 1449 1449 1457 1464 1462 1459 1458 1461 1467 1473 1487 1496 1498 1506 1507 1506 1515 1509 1493 1492 1498 1515 1533 1529 1522 1523 1519 1517 1520 1521 1522 1525 1528 1531 1530 1531 1532 1534 1535 1536 1538 1540 1542 1544 1546 1548 1552 1554 1555 1557 1559 1560 1561 1563 1566 1567 1568 1570 1572 1573 1575 1577 1579 1581 1583 1584 1586 1588 1589 1590 1592 1593 1593 1595 1596 1597 1598 1599 1600 1600 1600 1601
1469 1464 1454 1454 1455 1451 1458 1468 1472 1470 1465 1468 1472 1478 1492 1503 1515 1523 1516 1512 1512 1502 1494 1490 1500 1526 1536 1523 1519 1520 1516 1517 1519 1521 1524 1524 1527 1531 1530 1531 1533 1533 1534 1535 1537 1539 1541 1543 1546 1547 1550 1553 1554 1555 1558 1559 1560 1562 1564 1566 1567 1569 1570 1572 1574 1576 1578 1580 1581 1583 1585 1586 1588 1589 1591 1592 1593 1595 1596 1597 1598 1599 1600 1600 1601 1602
1479 1479 1463 1460 1461 1455 1457 1463 1468 1469 1467 1467 1466 1473 1485 1491 1505 1516 1510 1509 1508 1503 1501 1497 1510 1534 1536 1527 1522 1517 1516 1519 1520 1523 1524 1525 1527 1531 1531 1531 1531 1532 1532 1534 1536 1538 1540 1542 1545 1547 1549 1551 1553 1554 1556 1557 1558 1560 1562 1564 1565 1567 1569 1571 1573 1575 1577 1579 1581 1583 1584 1586 1587 1589 1590 1592 1593 1594 1596 1597 1598 1599 1600 1601 1602 1602
1475 1478 1461 1455 1456 1454 1457 1458 1458 1465 1471 1468 1462 1474 1483 1478 1483 1493 1493 1490 1491 1505 1517 1513 1519 1526 1523 1524 1522 1517 1520 1520 1522 1525 1525 1525 1526 1529 1531 1529 1529 1531 1530 1532 1534 1536 1539 1541 1544 1546 1548 1551 1552 1553 1555 1556 1557 1558 1560 1562 1564 1566 1568 1569 1572 1574 1576 1578 1580 1582 1583 1585 1586 1588 1589 1591 1592 1594 1595 1596 1597 1599 1600 1601 1602 1603
1475 1474 1456 1454 1457 1452 1455 1457 1455 1464 1475 1472 1470 1479 1476 1465 1470 1484 1490 1481 1483 1515 1532 1522 1524 1525 1522 1529 1526 1522 1526 1524 1525 1528 1527 1527 1526 1527 1529 1527 1529 1531 1530 1531 1532 1535 1538 1541 1543 1545 1547 1549 1551 1552 1553 1554 1555 1556 1559 1561 1563 1565 1567 1569 1571 1573 1575 1577 1579 1581 1582 1584 1585 1587 1588 1589 1591 1593 1595 1596 1597 1598 1600 1601 1602 1603
1475 1476 1459 1455 1463 1456 1451 1456 1456 1456 1466 1473 1479 1479 1468 1463 1467 1479 1494 1493 1496 1526 1536 1525 1529 1532 1534 1541 1534 1529 1533 1531 1528 1528 1528 1529 1527 1527 1529 1528 1530 1532 1533 1533 1533 1534 1537 1539 1541 1542 1544 1547 1549 1552 1553 1553 1554 1555 1557 1560 1562 1564 1566 1568 1570 1573 1575 1576 1578 1580 1581 1583 1584 1586 1587 1588 1590 1592 1593 1595 1596 1597 1599 1600 1601 1602
1471 1480 1467 1454 1462 1460 1452 1461 1467 1460 1458 1467 1473 1470 1471 1482 1483 1482 1493 1498 1508 1533 1544 1541 1541 1538 1540 1543 1535 1533 1536 1532 1528 1527 1529 1530 1529 1530 1530 1530 1532 1533 1534 1534 1533 1535 1536 1537 1539 1540 1542 1545 1548 1552 1553 1553 1555 1555 1557 1559 1560 1563 1565 1567 1570 1572 1574 1576 1577 1579 1580 1581 1583 1584 1586 1587 1589 1590 1591 1593 1595 1596 1598 1599 1600 1601
1469 1482 1479 1460 1458 1462 1460 1468 1477 1473 1464 1464 1469 1469 1471 1481 1483 1482 1483 1486 1506 1535 1545 1550 1553 1546 1543 1538 1532 1533 1531 1527 1529 1529 1530 1532 1532 1532 1532 1532 1534 1534 1535 1535 1535 1536 1536 1537 1539 1541 1543 1544 1547 1551 1552 1553 1554 1555 1557 1558 1560 1562 1563 1566 1568 1570 1573 1575 1576 1578 1579 1580 1581 1583 1585 1586 1587 1589 1590 1591 1593 1594 1596 1597 1599 1600
1468 1476 1481 1469 1461 1466 1472 1473 1475 1476 1474 1474 1479 1479 1476 1474 1473 1477 1476 1470 1490 1523 1536 1546 1557 1551 1538 1532 1531 1530 1526 1526 1528 1528 1531 1533 1533 1534 1534 1534 1535 1536 1537 1538 1537 1537 1536 1537 1539 1541 1543 1544 1547 1551 1552 1552 1553 1553 1555 1557 1559 1560 1561 1564 1567 1569 1572 1574 1575 1577 1577 1579 1580 1581 1583 1584 1585 1587 1588 1590 1591 1593 1594 1596 1597 1599
1473 1473 1477 1474 1471 1473 1474 1469 1466 1469 1471 1474 1479 1479 1477 1476 1475 1483 1488 1474 1476 1502 1517 1531 1551 1551 1535 1530 1531 1528 1525 1527 1527 1528 1531 1533 1534 1536 1535 1535 1537 1537 1539 1539 1539 1538 1537 1536 1538 1540 1542 1545 1549 1551 1550 1551 1552 1552 1554 1555 1556 1559 1562 1564 1566 1568 1570 1573 1575 1576 1576 1577 1579 1580 1581 1582 1584 1585 1586 1588 1589 1591 1592 1593 1595 1597
1472 1473 1475 1476 1473 1471 1468 1462 1462 1465 1465 1467 1472 1472 1471 1474 1476 1488 1500 1492 1486 1498 1505 1516 1540 1547 1535 1530 1531 1528 1526 1527 1529 1530 1532 1534 1536 1536 1536 1536 1537 1537 1538 1539 1539 1539 1538 1536 1537 1539 1541 1544 1547 1548 1547 1548 1549 1551 1552 1554 1556 1559 1562 1564 1565 1567 1569 1571 1573 1575 1576 1576 1577 1578 1579 1581 1582 1583 1585 1586 1587 1589 1590 1591 1593 1595
1471 1475 1480 1479 1470 1464 1462 1460 1460 1462 1465 1470 1472 1468 1469 1473 1474 1480 1488 1489 1495 1504 1509 1523 1544 1546 1535 1531 1531 1531 1529 1528 1531 1532 1533 1536 1537 1536 1538 1538 1537 1538 1539 1539 1540 1540 1540 1539 1538 1540 1541 1544 1547 1547 1546 1546 1547 1549 1551 1553 1556 1559 1560 1560 1562 1564 1566 1569 1572 1573 1574 1575 1575 1576 1578 1579 1581 1582 1583 1584 1585 1587 1588 1590 1591 1593
1478 1480 1483 1488 1486 1481 1479 1478 1474 1471 1471 1475 1474 1467 1468 1470 1471 1475 1479 1485 1499 1508 1509 1526 1547 1544 1534 1532 1532 1532 1530 1529 1531 1533 1534 1536 1537 1537 1539 1540 1540 1541 1541 1541 1542 1542 1542 1542 1542 1542 1543 1544 1546 1547 1546 1545 1546 1548 1550 1552 1554 1557 1559 1561 1562 1564 1566 1569 1571 1571 1572 1573 1573 1574 1575 1576 1579 1580 1581 1583 1584 1585 1586 1588 1590 1591
1480 1482 1484 1495 1505 1506 1504 1499 1490 1481 1476 1476 1473 1469 1470 1471 1473 1480 1486 1495 1507 1512 1512 1524 1540 1540 1533 1532 1535 1535 1531 1529 1531 1533 1535 1536 1536 1537 1540 1541 1543 1543 1544 1544 1544 1543 1543 1544 1545 1545 1544 1544 1544 1544 1545 1546 1546 1548 1549 1551 1552 1555 1558 1560 1562 1564 1565 1568 1569 1568 1569 1570 1571 1572 1573 1574 1576 1578 1580 1582 1583 1584 1584 1586 1588 1589
1479 1481 1482 1490 1498 1500 1498 1493 1483 1479 1480 1479 1475 1472 1473 1475 1476 1480 1491 1502 1506 1512 1520 1522 1526 1534 1536 1534 1537 1537 1532 1530 1532 1533 1535 1537 1538 1539 1540 1543 1544 1545 1546 1546 1545 1544 1543 1543 1545 1545 1545 1545 1543 1543 1544 1545 1546 1547 1548 1550 1552 1554 1556 1558 1560 1561 1562 1564 1566 1566 1566 1568 1569 1570 1571 1572 1573 1575 1578 1580 1582 1583 1584 1585 1586 1587
1483 1487 1485 1484 1486 1485 1484 1483 1478 1476 1480 1480 1476 1475 1475 1477 1478 1481 1493 1502 1501 1513 1531 1526 1518 1529 1535 1532 1533 1533 1529 1530 1532 1533 1536 1538 1539 1541 1541 1543 1545 1547 1548 1547 1546 1545 1544 1544 1545 1545 1545 1546 1545 1545 1545 1547 1548 1548 1548 1549 1551 1554 1556 1558 1559 1559 1558 1560 1564 1567 1566 1565 1567 1568 1569 1570 1572 1574 1576 1578 1580 1582 1583 1584 1584 1585
1487 1492 1488 1484 1484 1482 1480 1480 1479 1478 1480 1479 1478 1479 1478 1478 1482 1485 1491 1496 1496 1509 1526 1523 1518 1525 1528 1526 1527 1527 1527 1529 1530 1532 1535 1537 1539 1541 1542 1544 1546 1548 1549 1549 1548 1547 1546 1546 1546 1546 1547 1547 1548 1548 1549 1550 1549 1549 1549 1549 1551 1553 1555 1557 1559 1559 1559 1560 1564 1567 1566 1564 1565 1567 1568 1569 1571 1573 1575 1577 1579 1580 1582 1583 1584 1584
1487 1492 1490 1487 1487 1484 1481 1482 1482 1482 1484 1483 1482 1483 1482 1482 1484 1485 1490 1492 1495 1505 1513 1514 1519 1524 1523 1523 1524 1525 1527 1528 1530 1533 1535 1536 1539 1540 1542 1545 1547 1549 1550 1550 1550 1549 1548 1548 1547 1548 1548 1548 1549 1550 1550 1551 1551 1550 1550 1549 1551 1554 1555 1556 1557 1558 1560 1561 1562 1564 1564 1563 1563 1565 1566 1568 1570 1571 1573 1575 1577 1579 1580 1580 1580 1582
1489 1494 1489 1488 1493 1492 1485 1484 1485 1486 1487 1488 1487 1486 1486 1488 1487 1487 1492 1494 1499 1509 1513 1515 1524 1529 1525 1523 1524 1526 1528 1529 1532 1536 1536 1538 1540 1541 1543 1545 1547 1550 1551 1552 1552 1551 1550 1549 1549 1549 1549 1549 1550 1551 1551 1552 1552 1551 1551 1550 1552 1554 1554 1554 1556 1556 1558 1559 1559 1559 1560 1560 1561 1562 1564 1566 1568 1569 1571 1572 1574 1575 1576 1576 1576 1577
1490 1494 1490 1490 1502 1501 1490 1487 1489 1487 1487 1492 1493 1491 1489 1491 1491 1491 1495 1498 1502 1511 1518 1523 1530 1531 1526 1524 1525 1527 1529 1531 1535 1538 1538 1540 1542 1543 1545 1547 1548 1551 1552 1553 1553 1553 1552 1551 1551 1551 1551 1552 1551 1551 1551 1552 1552 1553 1553 1552 1554 1554 1554 1555 1556 1557 1557 1556 1556 1557 1557 1558 1559 1560 1562 1563 1565 1567 1568 1569 1569 1569 1570 1571 1573 1573
1492 1496 1495 1497 1507 1505 1494 1490 1489 1489 1499 1505 1501 1494 1491 1492 1493 1494 1496 1498 1500 1507 1517 1525 1528 1526 1523 1523 1527 1530 1531 1534 1537 1539 1540 1542 1543 1545 1547 1548 1549 1552 1553 1554 1554 1554 1554 1553 1553 1553 1554 1554 1554 1553 1553 1553 1553 1554 1555 1555 1555 1555 1555 1556 1556 1556 1556 1555 1555 1556 1556 1557 1557 1558 1561 1562 1563 1565 1566 1566 1566 1565 1566 1568 1569 1570
1494 1497 1499 1500 1506 1507 1497 1489 1491 1504 1517 1514 1500 1491 1489 1488 1492 1498 1500 1501 1502 1506 1511 1517 1520 1521 1522 1524 1527 1531 1534 1535 1538 1540 1541 1543 1544 1546 1547 1549 1551 1552 1553 1554 1555 1555 1555 1555 1555 1555 1555 1556 1556 1555 1555 1556 1556 1556 1557 1557 1557 1556 1556 1556 1556 1555 1555 1554 1554 1555 1555 1555 1555 1557 1560 1561 1562 1563 1564 1564 1564 1564 1564 1565 1566 1569
1496 1498 1501 1500 1504 1507 1498 1496 1511 1524 1518 1503 1494 1490 1488 1487 1490 1498 1502 1503 1504 1507 1511 1516 1520 1522 1524 1526 1528 1532 1534 1537 1539 1541 1542 1544 1545 1547 1548 1550 1552 1553 1554 1555 1555 1556 1556 1555 1555 1556 1556 1556 1557 1556 1557 1557 1557 1558 1558 1558 1557 1557 1557 1556 1556 1555 1554 1554 1553 1553 1554 1554 1553 1555 1559 1561 1562 1562 1562 1562 1562 1562 1562 1563 1565 1567
1499 1501 1502 1501 1503 1507 1504 1508 1522 1523 1506 1495 1496 1493 1491 1493 1495 1501 1509 1510 1508 1509 1512 1517 1521 1522 1524 1527 1530 1532 1536 1539 1541 1542 1543 1545 1547 1548 1550 1551 1552 1554 1555 1555 1556 1556 1556 1556 1556 1556 1556 1556 1556 1556 1556 1556 1557 1558 1558 1557 1557 1557 1556 1556 1555 1554 1553 1553 1552 1551 1551 1551 1551 1553 1556 1559 1560 1560 1560 1560 1560 1560 1560 1561 1562 1564
1500 1502 1504 1505 1504 1506 1509 1511 1513 1513 1508 1504 1502 1497 1496 1499 1500 1504 1514 1516 1512 1510 1513 1517 1520 1523 1525 1528 1530 1533 1537 1540 1542 1544 1544 1546 1548 1550 1551 1552 1553 1555 1556 1556 1557 1557 1558 1557 1557 1557 1557 1556 1556 1556 1555 1555 1556 1556 1556 1556 1555 1555 1555 1554 1554 1553 1552 1552 1551 1551 1551 1550 1551 1553 1555 1557 1558 1558 1558 1558 1558 1558 1558 1559 1560 1561
1500 1502 1506 1510 1507 1503 1509 1515 1516 1522 1523 1513 1503 1499 1497 1499 1500 1501 1512 1518 1513 1511 1514 1516 1519 1523 1525 1529 1532 1534 1537 1542 1545 1545 1545 1547 1549 1550 1551 1552 1553 1555 1556 1557 1557 1558 1558 1559 1559 1558 1558 1557 1558 1557 1556 1556 1555 1555 1556 1555 1555 1554 1554 1553 1553 1553 1553 1553 1553 1553 1554 1554 1555 1555 1556 1556 1556 1556 1556 1556 1556 1556 1556 1557 1558 1558
1501 1501 1503 1511 1512 1506 1510 1518 1521 1525 1523 1510 1502 1500 1499 1501 1500 1502 1516 1524 1515 1510 1513 1516 1518 1523 1525 1528 1532 1533 1537 1543 1546 1545 1546 1548 1549 1549 1550 1552 1554 1555 1556 1557 1558 1558 1559 1559 1559 1559 1558 1558 1558 1557 1556 1556 1556 1556 1556 1556 1556 1555 1554 1554 1554 1554 1554 1555 1555 1555 1555 1555 1556 1555 1555 1554 1554 1553 1553 1553 1553 1554 1554 1554 1555 1555
1504 1504 1505 1511 1514 1509 1509 1514 1517 1519 1515 1506 1502 1502 1502 1502 1502 1511 1530 1531 1515 1510 1515 1515 1518 1523 1524 1526 1530 1533 1537 1541 1543 1544 1546 1547 1547 1548 1550 1552 1554 1555 1555 1556 1557 1558 1558 1558 1559 1558 1558 1558 1558 1557 1557 1556 1555 1555 1556 1556 1556 1556 1555 1554 1554 1554 1555 1555 1555 1555 1555 1554 1554 1554 1553 1553 1552 1552 1551 1551 1551 1551 1551 1552 1553 1553
1508 1507 1508 1511 1512 1509 1509 1514 1517 1516 1510 1504 1503 1504 1504 1505 1509 1522 1533 1525 1513 1513 1516 1516 1520 1525 1525 1526 1529 1533 1537 1539 1541 1544 1545 1546 1547 1549 1551 1553 1554 1554 1555 1556 1556 1556 1557 1558 1557 1557 1558 1558 1558 1557 1557 1556 1555 1555 1555 1555 1555 1555 1555 1555 1555 1554 1555 1555 1554 1555 1554 1554 1553 1553 1552 1552 1551 1551 1551 1550 1550 1550 1549 1550 1551 1551
1512 1511 1511 1511 1512 1511 1509 1512 1520 1520 1510 1504 1506 1506 1505 1512 1521 1525 1523 1516 1514 1516 1516 1519 1523 1524 1525 1527 1530 1534 1538 1540 1541 1544 1546 1547 1549 1550 1551 1553 1554 1555 1556 1556 1556 1556 1557 1556 1556 1556 1557 1557 1557 1557 1556 1556 1555 1555 1554 1554 1554 1554 1555 1555 1555 1554 1554 1554 1553 1554 1554 1554 1553 1552 1552 1551 1550 1550 1550 1550 1550 1549 1549 1549 1549 1549
1510 1512 1514 1512 1511 1511 1511 1515 1525 1526 1513 1505 1507 1509 1511 1517 1522 1520 1516 1516 1517 1517 1519 1522 1524 1524 1526 1529 1532 1536 1539 1540 1542 1544 1546 1548 1549 1550 1552 1553 1554 1555 1556 1556 1556 1556 1556 1556 1555 1555 1555 1555 1555 1555 1555 1555 1555 1554 1554 1554 1553 1553 1554 1554 1554 1554 1554 1553 1552 1552 1552 1552 1552 1552 1551 1551 1550 1549 1549 1549 1549 1549 1549 1549 1548 1547
1507 1511 1516 1515 1512 1515 1520 1522 1522 1519 1511 1507 1510 1514 1515 1517 1518 1517 1517 1518 1519 1520 1522 1524 1525 1527 1528 1530 1533 1537 1539 1541 1543 1545 1546 1548 1549 1550 1552 1553 1554 1555 1556 1555 1555 1555 1555 1555 1555 1555 1555 1554 1554 1554 1554 1554 1554 1553 1553 1553 1552 1552 1552 1552 1553 1553 1552 1552 1552 1551 1550 1551 1551 1551 1551 1550 1549 1548 1548 1548 1548 1548 1548 1548 1547 1546
1508 1509 1514 1515 1512 1513 1518 1518 1514 1511 1511 1511 1513 1515 1516 1518 1519 1519 1520 1520 1522 1524 1524 1525 1527 1529 1530 1531 1535 1538 1539 1541 1543 1544 1547 1548 1549 1550 1551 1552 1553 1555 1555 1555 1555 1555 1555 1555 1554 1554 1554 1553 1553 1553 1552 1552 1552 1552 1552 1551 1551 1551 1551 1550 1550 1550 1551 1551 1551 1550 1550 1549 1549 1550 1550 1549 1549 1548 1547 1547 1546 1546 1546 1546 1545 1544
1506 1506 1509 1511 1510 1510 1511 1511 1510 1511 1512 1513 1515 1517 1518 1519 1520 1521 1522 1523 1524 1525 1526 1528 1529 1530 1532 1534 1536 1538 1540 1542 1543 1544 1546 1547 1548 1550 1551 1552 1553 1554 1554 1554 1554 1554 1554 1554 1553 1553 1552 1552 1552 1552 1551 1551 1551 1550 1550 1550 1550 1549 1549 1549 1549 1549 1549 1549 1549 1549 1549 1549 1548 1548 1549 1549 1548 1547 1547 1546 1546 1545 1545 1544 1544 1544
1505 1506 1507 1509 1511 1514 1515 1512 1509 1510 1512 1513 1515 1517 1518 1520 1521 1522 1523 1524 1525 1526 1527 1528 1529 1531 1533 1535 1536 1538 1540 1541 1542 1544 1545 1546 1548 1549 1550 1551 1553 1553 1554 1554 1553 1553 1553 1552 1552 1552 1551 1551 1551 1550 1550 1549 1549 1548 1548 1548 1548 1548 1548 1548 1548 1547 1547 1547 1547 1547 1548 1548 1547 1547 1547 1547 1547 1547 1547 1546 1545 1545 1544 1544 1543 1543
1507 1508 1508 1508 1510 1512 1513 1512 1510 1511 1512 1513 1515 1516 1517 1519 1521 1522 1523 1525 1525 1526 1528 1529 1530 1531 1532 1534 1536 1538 1539 1541 1542 1543 1544 1546 1547 1548 1549 1551 1552 1552 1553 1552 1552 1552 1552 1551 1551 1551 1551 1550 1550 1549 1548 1547 1547 1546 1546 1545 1545 1545 1545 1545 1546 1545 1545 1545 1545 1546 1546 1546 1547 1546 1546 1546 1546 1546 1545 1545 1544 1544 1543 1543 1542 1541
1509 1509 1509 1509 1511 1511 1511 1511 1511 1512 1513 1514 1515 1516 1517 1518 1519 1521 1523 1524 1525 1526 1527 1529 1530 1531 1532 1534 1535 1536 1539 1540 1541 1542 1543 1545 1546 1547 1549 1550 1550 1551 1551 1551 1550 1551 1550 1550 1550 1550 1549 1549 1548 1547 1546 1546 1545 1545 1544 1544 1544 1543 1543 1543 1543 1543 1543 1543 1543 1544 1544 1545 1545 1545 1544 1544 1544 1544 1544 1543 1543 1542 1541 1541 1541 1540
1509 1510 1509 1510 1513 1514 1515 1514 1514 1514 1515 1515 1515 1516 1517 1517 1517 1519 1521 1522 1524 1525 1527 1528 1530 1531 1532 1534 1534 1535 1538 1539 1539 1541 1543 1544 1544 1546 1547 1548 1549 1549 1549 1549 1549 1549 1549 1549 1549 1548 1547 1547 1546 1545 1545 1544 1543 1543 1542 1542 1542 1541 1541 1541 1541 1541 1541 1541 1541 1542 1542 1543 1543 1543 1542 1542 1541 1541 1541 1541 1541 1540 1539 1539 1539 1538
1509 1510 1509 1511 1514 1515 1515 1515 1514 1515 1516 1516 1515 1516 1516 1517 1517 1519 1520 1521 1522 1523 1524 1526 1528 1530 1531 1533 1533 1534 1536 1537 1538 1540 1541 1542 1543 1544 1545 1546 1547 1547 1547 1547 1548 1548 1548 1548 1547 1546 1545 1545 1544 1543 1543 1542 1542 1541 1541 1540 1540 1539 1539 1539 1538 1539 1539 1539 1540 1540 1540 1540 1540 1540 1540 1540 1539 1538 1538 1538 1538 1538 1537 1537 1536 1536